Time,TemperatureF,DewpointF,PressureIn,WindDirection,WindDirectionDegrees,WindSpeedMPH,WindSpeedGustMPH,Humidity,HourlyPrecipIn,Conditions,Clouds,dailyrainin,SoftwareType,DateUTC
2013-01-12 01:00:00,32.0,-99.9,-100.00,East,84,1.0,-999.0,-999,-99.99,,,-99.99,,2013-01-12 09:00:00,
2013-01-12 02:00:00,31.0,-99.9,-100.00,NE,40,1.0,-999.0,-999,-99.99,,,-99.99,,2013-01-12 10:00:00,
2013-01-12 03:00:00,30.0,-99.9,-100.00,ENE,72,1.0,-999.0,-999,-99.99,,,-99.99,,2013-01-12 11:00:00,
2013-01-12 04:00:00,30.0,-99.9,-100.00,ENE,62,1.0,-999.0,-999,-99.99,,,-99.99,,2013-01-12 12:00:00,
2013-01-12 05:00:00,29.0,-99.9,-100.00,NE,34,1.0,-999.0,-999,-99.99,,,-99.99,,2013-01-12 13:00:00,
2013-01-12 05:53:00,29.0,-99.9,-100.00,NE,34,1.0,-999.0,-999,-99.99,,,-99.99,,2013-01-12 13:53:00,
2013-01-12 06:00:00,29.0,-99.9,-100.00,East,83,1.0,-999.0,-999,-99.99,,,-99.99,,2013-01-12 14:00:00,
2013-01-12 07:00:00,30.0,-99.9,-100.00,NNE,32,1.0,-999.0,-999,-99.99,,,-99.99,,2013-01-12 15:00:00,
2013-01-12 10:00:00,32.0,-99.9,-100.00,NE,44,1.0,-999.0,-999,-99.99,,,-99.99,,2013-01-12 18:00:00,
2013-01-12 11:00:00,37.0,-99.9,-100.00,NW,321,2.0,-999.0,-999,-99.99,,,-99.99,,2013-01-12 19:00:00,
2013-01-12 12:00:00,34.0,-99.9,-100.00,NW,324,3.0,-999.0,-999,-99.99,,,-99.99,,2013-01-12 20:00:00,
2013-01-12 13:00:00,41.0,-99.9,-100.00,NNW,343,2.0,-999.0,-999,-99.99,,,-99.99,,2013-01-12 21:00:00,
2013-01-12 13:53:00,41.0,-99.9,-100.00,NNW,343,2.0,-999.0,-999,-99.99,,,-99.99,,2013-01-12 21:53:00,
2013-01-12 14:00:00,39.0,-99.9,-100.00,NNW,329,5.0,-999.0,-999,-99.99,,,-99.99,,2013-01-12 22:00:00,
2013-01-12 17:00:00,35.0,-99.9,-100.00,North,353,3.0,-999.0,-999,-99.99,,,-99.99,,2013-01-13 01:00:00,
2013-01-12 17:53:00,35.0,-99.9,-100.00,North,353,3.0,-999.0,-999,-99.99,,,-99.99,,2013-01-13 01:53:00,
2013-01-12 18:00:00,35.0,-99.9,-100.00,NNE,18,2.0,-999.0,-999,-99.99,,,-99.99,,2013-01-13 02:00:00,
2013-01-12 19:00:00,34.0,-99.9,-100.00,NNE,22,1.0,-999.0,-999,-99.99,,,-99.99,,2013-01-13 03:00:00,
2013-01-12 19:53:00,34.0,-99.9,-100.00,NNE,22,1.0,-999.0,-999,-99.99,,,-99.99,,2013-01-13 03:53:00,
2013-01-12 20:00:00,33.0,-99.9,-100.00,NNW,345,1.0,-999.0,-999,-99.99,,,-99.99,,2013-01-13 04:00:00,
2013-01-12 21:00:00,33.0,-99.9,-100.00,North,358,1.0,-999.0,-999,-99.99,,,-99.99,,2013-01-13 05:00:00,
2013-01-12 22:00:00,33.0,-99.9,-100.00,ENE,60,1.0,-999.0,-999,-99.99,,,-99.99,,2013-01-13 06:00:00,
2013-01-12 23:00:00,32.0,-99.9,-100.00,North,8,2.0,-999.0,-999,-99.99,,,-99.99,,2013-01-13 07:00:00,